THOR AGENA D R/B, 733

Orbit data source: Space-Track

THOR AGENA D R/B, 733 is space debris in SSO originally from a launch on Sun, 19 Jan 1964 UTC launched from the Air Force Western Test Range (AFWTR). Debris objects in space refer to the collection of defunct objects orbiting the Earth. Examples of debris include non-operational satellites, rocket bodies, and fragments generated from explosions, collisions, or faulty payload assembly.

Loading next visibility...
Identifier
733, 1964-002A
Orbit
SSO
Last TLE update
8 hours ago
Origin
Manufacturer
LMSC
Mission
Spacecraft
Bus & Motor
AGENA D, Unknown motor
Mass
600 kg wet, 600 kg dry
Launch date (UTC)
1964-01-19 (61 years ago)
Launch vehicle
Unknown
Launch site
Air Force Western Test Range (AFWTR)
Object type
Payload
Rocket body
Debris
Shape & HBR
Cyl + 1 Nozzle, 6.3 m
Radar Cross Section
8.306 m², Large (>1 m²)

Expand to show TLE details & history

TLE from 8 hours ago
0 THOR AGENA D R/B
1 00733U 64002A   25183.92595115  .00000154  00000-0  72748-4 0  9993
2 00733  99.1137 178.7587 0031909 265.5766  94.1771 14.33830924202502
Epoch: 2025-07-02T22:13Z
TLE epoch observation values (Epoch: 2025-07-02T22:13:22.179Z)
Latitude
-0.00001°
Longitude
-75.78376°
Altitude
783.61 km
Speed
7.461 km/s
True Right ascension
11h 55m 02s
True Declination
0° 00' 00"
Sunlit
Object was in daylight at epoch
Visualization orbit readout
Latitude
-65.5079°
Longitude
84.05726°
Altitude
782.051 km
Speed
7.473 km/s
Apparent Right ascension
03h 27m 38s
Apparent Declination
-65° 23' 28"
Sunlit
Object is in full shadow
Visualization observer readout
Local Sidereal Time
17:49:58
Azimuth
153.216° SSE
Elevation
-57.473°
Doppler factor
1
Orbital elements
Apogee altitude
798.943 km
Perigee altitude
753.286 km
Semi-major axis
7,154.251 km
Eccentricity
0.00319
Inclination
99.1137°
RAAN
178.7587°
Arg. of periapsis
265.5766°
True anomaly
Unknown
Mean anomaly
94.1771°
Eccentric anomaly
Unknown
Mean motion
3.58672 °/min
Orbital period
100.37 mins
BSTAR
0.000072748
Loading maneuver chart data...
Loading SW <> Apogee altitude chart data...
Loading historical data...
Loading historical data...
Loading historical data...
Loading historical data...
Loading historical data...
Loading historical data...
Loading historical data...
Other satellites on launch #2 in the year 1964 (1964-01-19 UTC)

THOR AGENA D R/B Visibility forecast

Observer location: undefined°, undefined°

Span
Click to sort rows by Start time (UTC) header in descending order
Start Az.
Max El. time (UTC)
Max El. Az.
Max El.
End time (UTC)
End Az.
9 mins2025-07-03 12:12:21.398Z26.83° NE2025-07-03 12:16:21.398Z88.324° E38.13°2025-07-03 12:21:21.398Z176.515° S
5 mins2025-07-03 13:53:21.398Z326.371° NNW2025-07-03 13:55:21.398Z298.068° NW18.651°2025-07-03 13:58:21.398Z258.407° W
8 mins2025-07-03 23:28:21.398Z156.998° SSE2025-07-03 23:32:21.398Z42.816° NE43.92°2025-07-03 23:36:21.398Z350.09° N
|